Regional Weather Roundup
Issued by NWS

Home | Current Version | Previous Version | Graphics & Text | Print | Product List | Glossary On
Versions: 1 2 3 4 5 6 7 8 9 10 11 12 13 14 15 16 17 18 19 20 21 22 23 24 25 26 27 28 29 30 31 32 33 34 35 36 37 38 39 40 41 42 43 44 45 46 47 48 49 50
401
ASUS44 KLIX 300701
RWRLA
LOUISIANA WEATHER ROUNDUP
NATIONAL WEATHER SERVICE NEW ORLEANS LA
200 AM CDT THU OCT 30 2014

NOTE: "FAIR" INDICATES FEW OR NO CLOUDS BELOW 12,000 FEET WITH NO
      SIGNIFICANT WEATHER AND/OR OBSTRUCTIONS TO VISIBILITY.
      SKY/WX - SKY CONDITION AND SIGNIFICANT WEATHER.
      TMP - AIR TEMPERATURE.    DP   - DEWPOINT TEMPERATURE.
      RH  - RELATIVE HUMIDITY.  PRES - PRESSURE.
      HX  - HEAT INDEX.         WCI  - WIND CHILL INDEX.

*  THESE STATIONS ARE NOT NWS OR FAA STATIONS AND ARE NOT UNDER
   NWS QUALITY CONTROL.

LAZ040-048-061>063-065-066-069-300800-
SOUTHEAST LOUISIANA

CITY           SKY/WX    TMP DP  RH WIND       PRES   REMARKS
N.O. AUDUBON     N/A     69  58  67 MISG        N/A
N.O. INTL ARPT PTCLDY    68  50  52 NE17      30.07S
N.O. LAKEFRONT CLOUDY    69  52  54 NE22      30.08S
N.O. DOWNTOWN* CLOUDY    68  52  56 NE10      30.08R
SLIDELL        CLOUDY    63  51  65 N8        30.07S
BATON ROUGE    MOCLDY    58  49  72 NE6       30.10S
BOOTHVILLE     CLOUDY    71  65  81 N12G18    30.04S
BELLE CHASSE   CLOUDY    68  59  73 NE10      30.06S
BOGALUSA*        N/A     58  49  74 N6        30.11S
NEW ROADS*     FAIR      55  50  83 CALM      30.11S
GONZALES*      CLOUDY    63  54  74 NE6       30.08S
HAMMOND*       NOT AVBL
HOUMA*         CLEAR     64  60  87 N8        30.06S
PORT FOURCHON* CLOUDY    73  68  83 NE12      30.07S

$$

LAZ041-044-053-054-300800-
SOUTHWEST LOUISIANA

CITY           SKY/WX    TMP DP  RH WIND       PRES   REMARKS
LAKE CHARLES   CLEAR     59  50  72 NE9       30.10F
LAFAYETTE      CLEAR     59  52  77 N8        30.09F
PATTERSON      PTCLDY    63  57  82 N7        30.09F
SALT POINT       N/A     65  60  84 N5        30.06F
NEW IBERIA     CLEAR     61  53  75 N8        30.09F
CHENAULT AIRPK CLEAR     58  50  73 NE6       30.11S

$$

LAZ027-028-300800-
CENTRAL LOUISIANA

CITY           SKY/WX    TMP DP  RH WIND       PRES   REMARKS
FORT POLK      CLEAR     55  47  76 NE2       30.12S
ALEXANDRIA INT CLEAR     47  46  97 CALM      30.11S
ALEXANDRIA     CLEAR     47  46  97 CALM      30.13S

$$

LAZ001-002-300800-
NORTHWEST LOUISIANA

CITY           SKY/WX    TMP DP  RH WIND       PRES   REMARKS
SHREVEPORT     CLEAR     51  47  86 CALM      30.14S
BARKSDALE AFB  CLEAR     48  47  96 CALM      30.15R
DTN SHREVEPORT CLEAR     50  47  89 CALM      30.15S

$$

LAZ014-016-300800-
NORTHEAST LOUISIANA

CITY           SKY/WX    TMP DP  RH WIND       PRES   REMARKS
MONROE         CLEAR     48  46  93 CALM      30.15S
TALLULAH       CLEAR     44  43  96 CALM      30.13F

$$




USA.gov is the U.S. government's official web portal to all federal, state and local government web resources and services.